Terug naar catalogus

SJ-21

ActiefWetenschapGEO
NORAD 49330·PAYLOAD·🇨🇳 China

Gelanceerd Oct 24, 2021 vanaf Xichang Satellite Launch Center

Loading…

TLE

VersSource: Space-Track

Epoch: Sep 14, 2026, 18:38 UTC

1 49330U 21094A   26257.77680567 -.00000354  00000-0  00000+0 0  9995
2 49330   5.3208  60.5739 0053533 171.4545 169.2705  1.00266299  6253

Volg SJ-21 in realtime met AllMySat

Download on the App Store